• In Lithuania
  • List of Countries
  • For 7 days
  • Water Temperature
  • Satellite Maps
  • Weather Map
  • Weather Widgets
  • user-avatar
    Login

    Hourly Weather Faizabad

    Today, 18 January, Thursday

    Time Temperature Precipitation Wind Pressure Humidity
    00:00 +13°C° 0 mm 2 mps 751 mmHg 60%
    01:00 +13°C° 0 mm 2 mps 751 mmHg 61%
    02:00 +12°C° 0 mm 2 mps 751 mmHg 62%
    03:00 +12°C° 0 mm 2 mps 751 mmHg 64%
    04:00 +12°C° 0 mm 2 mps 751 mmHg 65%
    05:00 +10°C° 0 mm 1 mps 751 mmHg 74%
    06:00 +11°C° 0 mm 1 mps 752 mmHg 71%
    07:00 +12°C° 0 mm 1 mps 752 mmHg 67%
    08:00 +13°C° 0 mm 1 mps 753 mmHg 64%
    09:00 +15°C° 0 mm 2 mps 753 mmHg 57%
    10:00 +18°C° 0 mm 2 mps 753 mmHg 51%
    11:00 +20°C° 0 mm 2 mps 753 mmHg 45%
    12:00 +21°C° 0 mm 3 mps 752 mmHg 42%
    13:00 +24°C° 0 mm 3 mps 752 mmHg 40%
    14:00 +25°C° 0 mm 3 mps 751 mmHg 37%
    15:00 +22°C° 0 mm 3 mps 751 mmHg 43%
    16:00 +20°C° 0 mm 2 mps 751 mmHg 48%
    17:00 +20°C° 0 mm 1 mps 751 mmHg 53%
    18:00 +19°C° 0 mm 1 mps 751 mmHg 55%
    19:00 +18°C° 0 mm 1 mps 751 mmHg 58%
    20:00 +16°C° 0 mm 1 mps 752 mmHg 60%
    21:00 +16°C° 0 mm 1 mps 752 mmHg 61%
    22:00 +15°C° 0 mm 1 mps 752 mmHg 63%
    23:00 +15°C° 0 mm 1 mps 752 mmHg 64%

    Tomorrow, 19 January, Friday

    Time Temperature Precipitation Wind Pressure Humidity
    00:00 +15°C° 0 mm 1 mps 751 mmHg 66%
    01:00 +14°C° 0 mm 1 mps 751 mmHg 67%
    02:00 +14°C° 0 mm 1 mps 751 mmHg 68%
    03:00 +14°C° 0 mm 1 mps 751 mmHg 70%
    04:00 +13°C° 0 mm 1 mps 751 mmHg 72%
    05:00 +13°C° 0 mm 1 mps 751 mmHg 74%
    06:00 +14°C° 0 mm 1 mps 751 mmHg 72%
    07:00 +15°C° 0 mm 1 mps 752 mmHg 69%
    08:00 +16°C° 0 mm 1 mps 753 mmHg 67%
    09:00 +19°C° 0 mm 1 mps 753 mmHg 60%
    10:00 +20°C° 0 mm 2 mps 753 mmHg 53%
    11:00 +23°C° 0 mm 2 mps 753 mmHg 46%
    12:00 +24°C° 0 mm 3 mps 753 mmHg 43%
    13:00 +25°C° 0 mm 3 mps 752 mmHg 40%
    14:00 +26°C° 0 mm 3 mps 751 mmHg 37%
    15:00 +24°C° 0 mm 3 mps 751 mmHg 42%
    16:00 +23°C° 0 mm 2 mps 751 mmHg 47%
    17:00 +20°C° 0 mm 2 mps 751 mmHg 52%
    18:00 +19°C° 0 mm 2 mps 751 mmHg 53%
    19:00 +18°C° 0 mm 2 mps 751 mmHg 55%
    20:00 +17°C° 0 mm 2 mps 752 mmHg 56%
    21:00 +16°C° 0 mm 2 mps 752 mmHg 57%
    22:00 +16°C° 0 mm 2 mps 751 mmHg 58%
    23:00 +15°C° 0 mm 2 mps 751 mmHg 59%

    Day after tomorrow, 20 January, Saturday

    Time Temperature Precipitation Wind Pressure Humidity
    00:00 +15°C° 0 mm 2 mps 751 mmHg 59%
    01:00 +14°C° 0 mm 2 mps 751 mmHg 60%
    02:00 +14°C° 0 mm 2 mps 750 mmHg 60%
    03:00 +13°C° 0 mm 2 mps 750 mmHg 61%
    04:00 +13°C° 0 mm 2 mps 750 mmHg 62%
    05:00 +12°C° 0 mm 2 mps 750 mmHg 63%
    06:00 +13°C° 0 mm 2 mps 750 mmHg 61%
    07:00 +14°C° 0 mm 2 mps 751 mmHg 60%
    08:00 +14°C° 0 mm 2 mps 751 mmHg 58%
    09:00 +17°C° 0 mm 3 mps 751 mmHg 52%
    10:00 +19°C° 0 mm 3 mps 751 mmHg 45%
    11:00 +21°C° 0 mm 3 mps 751 mmHg 38%
    12:00 +22°C° 0 mm 3 mps 750 mmHg 36%
    13:00 +24°C° 0 mm 3 mps 750 mmHg 34%
    14:00 +25°C° 0 mm 4 mps 749 mmHg 32%
    15:00 +22°C° 0 mm 3 mps 749 mmHg 37%
    16:00 +21°C° 0 mm 3 mps 749 mmHg 42%
    17:00 +19°C° 0 mm 2 mps 749 mmHg 47%
    18:00 +18°C° 0 mm 2 mps 749 mmHg 49%
    19:00 +17°C° 0 mm 2 mps 750 mmHg 50%
    20:00 +16°C° 0 mm 2 mps 750 mmHg 51%
    21:00 +15°C° 0 mm 2 mps 750 mmHg 53%
    22:00 +14°C° 0 mm 2 mps 750 mmHg 54%
    23:00 +14°C° 0 mm 2 mps 750 mmHg 56%

    21 January, Sunday

    Time Temperature Precipitation Wind Pressure Humidity
    00:00 +13°C° 0 mm 2 mps 750 mmHg 57%
    01:00 +13°C° 0 mm 2 mps 750 mmHg 59%
    02:00 +12°C° 0 mm 2 mps 749 mmHg 60%
    03:00 +12°C° 0 mm 2 mps 750 mmHg 61%
    04:00 +12°C° 0 mm 1 mps 750 mmHg 63%
    05:00 +11°C° 0 mm 1 mps 750 mmHg 64%
    06:00 +12°C° 0 mm 1 mps 750 mmHg 62%
    07:00 +13°C° 0 mm 1 mps 751 mmHg 60%
    08:00 +14°C° 0 mm 1 mps 752 mmHg 58%
    09:00 +18°C° 0 mm 1 mps 752 mmHg 52%
    10:00 +20°C° 0 mm 1 mps 752 mmHg 46%
    11:00 +22°C° 0 mm 1 mps 752 mmHg 40%
    12:00 +23°C° 0 mm 1 mps 751 mmHg 37%
    13:00 +24°C° 0 mm 1 mps 751 mmHg 34%
    14:00 +25°C° 0 mm 1 mps 750 mmHg 32%
    15:00 +23°C° 0 mm 1 mps 750 mmHg 36%
    16:00 +21°C° 0 mm 1 mps 750 mmHg 40%
    17:00 +19°C° 0 mm 1 mps 750 mmHg 44%
    18:00 +18°C° 0 mm 1 mps 750 mmHg 46%
    19:00 +15°C° 0 mm 0 mps 750 mmHg 47%
    20:00 +14°C° 0 mm 0 mps 751 mmHg 48%
    21:00 +14°C° 0 mm 0 mps 751 mmHg 49%
    22:00 +15°C° 0 mm 1 mps 751 mmHg 50%
    23:00 +14°C° 0 mm 1 mps 750 mmHg 51%

    22 January, Monday

    Time Temperature Precipitation Wind Pressure Humidity
    00:00 +14°C° 0 mm 1 mps 750 mmHg 52%
    01:00 +13°C° 0 mm 1 mps 750 mmHg 53%
    02:00 +13°C° 0 mm 1 mps 750 mmHg 55%
    03:00 +12°C° 0 mm 1 mps 750 mmHg 56%
    04:00 +12°C° 0 mm 1 mps 750 mmHg 58%
    05:00 +11°C° 0 mm 1 mps 750 mmHg 60%
    06:00 +12°C° 0 mm 0 mps 750 mmHg 58%
    07:00 +13°C° 0 mm 0 mps 751 mmHg 56%
    08:00 +14°C° 0 mm 0 mps 751 mmHg 54%
    09:00 +18°C° 0 mm 1 mps 752 mmHg 48%
    10:00 +20°C° 0 mm 1 mps 752 mmHg 43%
    11:00 +22°C° 0 mm 1 mps 752 mmHg 38%
    12:00 +23°C° 0 mm 1 mps 751 mmHg 35%
    13:00 +24°C° 0 mm 1 mps 750 mmHg 33%
    14:00 +25°C° 0 mm 1 mps 749 mmHg 31%
    15:00 +23°C° 0 mm 1 mps 749 mmHg 36%
    16:00 +21°C° 0 mm 1 mps 749 mmHg 40%
    17:00 +19°C° 0 mm 1 mps 748 mmHg 45%
    18:00 +18°C° 0 mm 1 mps 749 mmHg 46%
    19:00 +16°C° 0 mm 1 mps 749 mmHg 47%
    20:00 +15°C° 0 mm 0 mps 749 mmHg 49%
    21:00 +14°C° 0 mm 0 mps 749 mmHg 50%
    22:00 +14°C° 0 mm 0 mps 749 mmHg 51%
    23:00 +13°C° 0 mm 0 mps 750 mmHg 52%

    23 January, Tuesday

    Time Temperature Precipitation Wind Pressure Humidity
    00:00 +13°C° 0 mm 0 mps 749 mmHg 53%
    01:00 +13°C° 0 mm 1 mps 749 mmHg 54%
    02:00 +13°C° 0 mm 1 mps 749 mmHg 55%
    03:00 +13°C° 0 mm 1 mps 749 mmHg 57%
    04:00 +12°C° 0 mm 1 mps 749 mmHg 59%
    05:00 +11°C° 0 mm 0 mps 749 mmHg 61%
    06:00 +13°C° 0 mm 1 mps 749 mmHg 59%
    07:00 +14°C° 0 mm 1 mps 750 mmHg 57%
    08:00 +15°C° 0 mm 1 mps 750 mmHg 55%
    09:00 +19°C° 0 mm 1 mps 750 mmHg 50%
    10:00 +20°C° 0 mm 2 mps 750 mmHg 45%
    11:00 +23°C° 0 mm 2 mps 750 mmHg 40%
    12:00 +24°C° 0 mm 2 mps 749 mmHg 37%
    13:00 +25°C° 0 mm 2 mps 748 mmHg 35%
    14:00 +26°C° 0 mm 2 mps 747 mmHg 32%
    15:00 +24°C° 0 mm 2 mps 747 mmHg 37%
    16:00 +21°C° 0 mm 2 mps 747 mmHg 41%
    17:00 +20°C° 0 mm 1 mps 747 mmHg 46%
    18:00 +19°C° 0 mm 2 mps 747 mmHg 48%
    19:00 +18°C° 0 mm 2 mps 747 mmHg 49%
    20:00 +17°C° 0 mm 3 mps 747 mmHg 51%
    21:00 +17°C° 0 mm 4 mps 747 mmHg 50%
    22:00 +16°C° 0 mm 5 mps 747 mmHg 48%
    23:00 +17°C° 0 mm 6 mps 747 mmHg 47%
    Show more